[[[{"header":{"parameterUnit":"kt","parameterCategory":2,"dx":1,"dy":1,"la1":30.253999710083008,"la2":30.299108505249023,"lo1":-89.0895004272461,"lo2":-89.04439544677734,"nx":28,"ny":28,"refTime":"2022-11-01T21:00:00:Z","depth":0,"parameterNumber":1,"parameterNumberName":"U-component_of_WINDS"},"data":[-6.6628,-6.6746,-6.6739,-6.6872,-6.6887,-6.6978,-6.7008,-6.7046,-6.7075,-6.7183,-6.7244,-6.7249,-6.7276,-6.7348,-6.7415,-6.7416,-6.7447,-6.7496,-6.749,-6.7275,-6.7245,-6.7217,-6.7189,-6.7502,-6.7502,-6.7715,-6.7717,-6.7718,-6.6479,-6.6495,-6.6562,-6.6621,-6.6679,-6.6629,-6.6672,-6.6725,-6.6807,-6.6842,-6.69,-6.6995,-6.7068,-6.7077,-6.7148,-6.7206,-6.7187,-6.7226,-6.7224,-6.723,-6.6999,-6.697,-6.7241,-6.7241,-6.724,-6.724,-6.724,-6.724,-6.6205,-6.6276,-6.6306,-6.6378,-6.6405,-6.6446,-6.6512,-6.6515,-6.658,-6.665,-6.6627,-6.672,-6.6754,-6.6833,-6.6857,-6.6931,-6.6886,-6.6927,-6.6938,-6.695,-6.6966,-6.667,-6.6941,-6.694,-6.694,-6.6939,-6.6938,0,-6.6004,-6.5993,-6.6054,-6.6115,-6.6166,-6.6212,-6.6252,-6.6292,-6.6264,-6.6319,-6.6398,-6.6443,-6.6531,-6.6607,-6.6669,-6.6685,-6.664,-6.6632,-6.6661,-6.6678,-6.6685,-6.6688,-6.6318,-6.6625,-6.6622,-6.662,-6.6619,-6.6618,-6.5732,-6.5813,-6.5838,-6.5883,-6.5902,-6.5974,-6.6016,-6.5983,-6.6029,-6.6074,-6.6139,-6.6211,-6.6269,-6.6398,-6.6401,-6.6467,-6.6446,-6.6566,-6.6456,-6.6468,-6.6455,-6.6452,-6.6463,-6.6589,-6.6593,-6.6596,-6.6598,0,-6.5581,-6.5564,-6.5686,-6.5702,-6.5709,-6.5796,-6.5811,-6.5879,-6.5872,-6.5966,-6.5986,-6.5978,-6.6056,-6.6038,-6.6123,-6.6112,-6.6263,-6.6238,-6.6253,-6.6248,-6.6358,-6.635,-6.6704,-6.6751,-6.6421,-6.6424,-6.6426,0,-6.5345,-6.5451,-6.5421,-6.5492,-6.561,-6.5573,-6.5691,-6.5697,-6.5722,-6.5795,-6.5737,-6.5808,-6.5772,-6.5841,-6.5824,-6.5943,-6.5957,-6.5958,-6.5953,-6.5966,-6.5966,-6.5993,-6.598,-6.5931,-6.5929,-6.5928,-6.5926,0,-6.5114,-6.5218,-6.5333,-6.5354,-6.5381,-6.5436,-6.545,-6.5477,-6.5517,-6.5566,-6.5593,-6.5652,-6.5686,-6.5734,-6.5713,-6.564,-6.5855,-6.575,-6.5856,-6.5857,-6.5907,-6.5905,-6.622,-6.5924,-6.5924,-6.5923,-6.5922,0,-6.492,-6.4968,-6.5135,-6.5156,-6.5185,-6.526,-6.5316,-6.5375,-6.5407,-6.54,-6.5438,-6.5398,-6.5495,-6.5393,-6.5529,-6.544,-6.5478,-6.5485,-6.5493,-6.5504,-6.5391,-6.5578,-6.5874,-6.5908,-6.5511,-6.5508,-6.5505,0,-6.4663,-6.4825,-6.4793,-6.4952,-6.5024,-6.4954,-6.5037,-6.5065,-6.5063,-6.5125,-6.5122,-6.5193,-6.5113,-6.5132,-6.5201,-6.5203,-6.5317,-6.5186,-6.5283,-6.5287,-6.5282,-6.5554,-6.5605,-6.5811,-6.546,-6.5465,-6.5468,0,-6.4461,-6.4489,-6.4519,-6.4543,-6.4572,-6.4631,-6.4724,-6.4785,-6.4829,-6.4864,-6.4945,-6.5041,-6.4986,-6.5018,-6.499,-6.5063,-6.5239,-6.4994,-6.4994,-6.5043,-6.5434,-6.5483,-6.5517,-6.5205,-6.521,-6.5214,-6.5433,0,-6.4183,-6.4259,-6.4338,-6.4387,-6.4428,-6.4524,-6.4501,-6.4548,-6.4517,-6.4511,-6.4626,-6.4642,-6.4704,-6.4735,-6.4704,-6.4875,-6.4844,-6.4783,-6.4685,-6.4862,-6.4934,-6.4963,-6.458,-6.4577,-6.4575,-6.4573,0,0,-6.3944,-6.4051,-6.4011,-6.4098,-6.4131,-6.4055,-6.4161,-6.4183,-6.4231,-6.4257,-6.4201,-6.434,-6.4355,-6.4497,-6.455,-6.4573,-6.4604,-6.4541,-6.4777,-6.48,-6.4821,-6.4898,-6.4928,-6.4568,-6.4567,-6.4566,-6.4565,0,-6.3838,-6.3851,-6.3953,-6.3974,-6.4004,-6.3991,-6.4016,-6.4032,-6.4033,-6.4142,-6.408,-6.4145,-6.4254,-6.4281,-6.4309,-6.4523,-6.4473,-6.4542,-6.4668,-6.4751,-6.4778,-6.4801,-6.4882,-6.4911,-6.4559,-6.456,-6.456,0,-6.3638,-6.3649,-6.3694,-6.376,-6.3779,-6.3853,-6.3744,-6.3825,-6.388,-6.3793,-6.3902,-6.3908,-6.3939,-6.4074,-6.4133,-6.4085,-6.4357,-6.4264,-6.4279,-6.4287,-6.4367,-6.4399,-6.4427,-6.4058,-6.4056,-6.4054,0,0,-6.355,-6.3618,-6.3618,-6.3735,-6.3752,-6.3733,-6.3769,-6.3741,-6.3769,-6.378,-6.3786,-6.3817,-6.388,-6.3923,-6.3981,-6.4131,-6.4137,-6.4203,-6.4227,-6.4246,-6.4264,-6.435,-6.4381,-6.4048,-6.4048,-6.4048,0,0,-6.3508,-6.3512,-6.3474,-6.3607,-6.3636,-6.3644,-6.3718,-6.3673,-6.3721,-6.3708,-6.3665,-6.3671,-6.3795,-6.3803,-6.3723,-6.3946,-6.3849,-6.3867,-6.3937,-6.3966,-6.399,-6.3987,-6.3614,0,0,0,0,0,-6.3386,-6.3511,-6.3477,-6.3495,-6.3578,-6.3663,-6.3673,-6.364,-6.3572,-6.3633,-6.363,-6.3572,-6.3752,-6.3679,-6.3699,-6.379,-6.3968,-6.3982,-6.3996,-6.412,-6.4151,-6.4178,0,0,0,0,0,0,-6.3393,-6.3415,-6.3473,-6.3487,-6.3505,-6.3658,-6.3537,-6.3531,-6.3565,-6.3553,-6.3575,-6.3573,-6.3547,-6.3667,-6.3685,-6.3772,-6.3607,-6.3974,-6.3986,-6.3997,-6.4131,-6.4156,-6.4178,0,0,0,0,0,-6.3398,-6.3416,-6.3556,-6.3485,-6.3501,-6.3486,-6.3532,-6.3526,-6.3552,-6.3548,-6.3544,-6.3523,-6.355,-6.3563,-6.3678,-6.3765,-6.3595,-6.3602,-6.3981,-6.3991,-6.3999,-6.4144,0,0,0,0,0,0,-6.3402,-6.3412,-6.3559,-6.3562,-6.3434,-6.3477,-6.3482,-6.3522,-6.3544,-6.3542,-6.3494,-6.3484,-6.3554,-6.3563,-6.3574,-6.3764,-6.3584,-6.3591,-6.3595,-6.3989,-6.3996,-6.4003,0,0,0,0,0,0,-6.3402,-6.3416,-6.3561,-6.3498,-6.3494,-6.3469,-6.3474,-6.3565,-6.3545,-6.3488,-6.3481,-6.3489,-6.3539,-6.3564,-6.3572,-6.3716,-6.3576,-6.3583,-6.3587,-6.359,-6.3995,-6.4001,0,0,0,0,0,0,-6.3407,-6.3419,-6.3497,-6.3494,-6.3491,-6.3529,-6.3549,-6.3636,-6.3491,-6.3489,-6.3477,-6.347,-6.3541,-6.3548,-6.3572,-6.3712,-6.3715,-6.3576,-6.3581,-6.3584,-6.3586,0,0,0,0,0,0,0,-6.3411,-6.334,-6.3537,-6.3491,-6.3487,-6.3596,-6.3597,-6.3598,-6.3489,-6.3484,-6.3478,-6.3473,-6.3537,-6.3544,-6.3552,-6.3709,0,0,-6.3575,-6.3579,0,0,0,0,0,0,0,0,-6.3335,-6.3339,-6.3537,-6.3538,-6.3539,-6.3596,-6.3597,-6.3598,-6.3488,-6.3484,-6.3479,-6.3475,-6.3539,-6.3545,-6.3551,0,0,0,0,0,0,0,0,0,0,0,0,0,0,0,-6.3537,-6.3538,0,-6.3596,-6.3597,-6.3598,-6.3488,-6.3484,-6.348,-6.3477,-6.3541,-6.3546,-6.3551,0,0,0,0,0,0,0,0,0,0,0,0,0,0,0,0,0,0,0,0,0,0,0,0,0,0,0,0,0,0,0,0,0,0,0,0,0,0,0,0,0,0,0,0,0,0,0,0,0,0,0,0,0,0,0,0,0,0,0,0,0,0,0,0,0,0,0,0,0]}],[{"header":{"parameterUnit":"kt","parameterCategory":2,"dx":1,"dy":1,"la1":30.253999710083008,"la2":30.299108505249023,"lo1":-89.0895004272461,"lo2":-89.04439544677734,"nx":28,"ny":28,"refTime":"2022-11-01T21:00:00:Z","depth":0,"parameterNumber":2,"parameterNumberName":"V-component_of_WINDS"},"data":[-3.0779,-3.0834,-3.0824,-3.0882,-3.0882,-3.0919,-3.093,-3.0941,-3.0948,-3.0991,-3.1014,-3.1008,-3.101,-3.1035,-3.1058,-3.1055,-3.1067,-3.1093,-3.1085,-3.0975,-3.0959,-3.0944,-3.093,-3.1096,-3.1096,-3.1201,-3.1202,-3.1203,-3.0697,-3.0699,-3.0726,-3.0746,-3.077,-3.0737,-3.075,-3.0772,-3.0806,-3.0815,-3.0837,-3.0874,-3.0902,-3.0894,-3.0919,-3.0944,-3.093,-3.0951,-3.095,-3.0951,-3.0832,-3.0818,-3.0962,-3.0962,-3.0962,-3.0962,-3.0962,-3.0962,-3.0547,-3.058,-3.0586,-3.0616,-3.0623,-3.0637,-3.0667,-3.066,-3.0686,-3.0712,-3.0694,-3.0732,-3.0739,-3.0763,-3.0769,-3.0798,-3.0773,-3.0793,-3.0798,-3.0803,-3.0811,-3.066,-3.0802,-3.0801,-3.0801,-3.08,-3.08,0,-3.0433,-3.0422,-3.0448,-3.0471,-3.0493,-3.0509,-3.0523,-3.0541,-3.0514,-3.0537,-3.057,-3.0587,-3.062,-3.065,-3.067,-3.0672,-3.0641,-3.0637,-3.065,-3.066,-3.0666,-3.0664,-3.0471,-3.0633,-3.0631,-3.063,-3.063,-3.0629,-3.028,-3.0321,-3.0322,-3.0342,-3.0347,-3.0379,-3.0396,-3.0369,-3.0389,-3.0401,-3.0432,-3.0461,-3.0483,-3.0537,-3.0528,-3.0553,-3.0538,-3.0601,-3.0542,-3.0549,-3.0539,-3.0537,-3.0541,-3.0613,-3.0615,-3.0617,-3.0618,0,-3.0195,-3.0178,-3.0238,-3.0235,-3.0236,-3.028,-3.0277,-3.0309,-3.0299,-3.0342,-3.035,-3.0334,-3.0367,-3.0348,-3.0381,-3.037,-3.0441,-3.0426,-3.0438,-3.0434,-3.0489,-3.0484,-3.0669,-3.0691,-3.0519,-3.0521,-3.0522,0,-3.0058,-3.0113,-3.0084,-3.012,-3.0179,-3.0151,-3.021,-3.0207,-3.0212,-3.0246,-3.0208,-3.024,-3.021,-3.024,-3.0224,-3.0278,-3.0284,-3.0279,-3.0275,-3.0283,-3.0284,-3.0294,-3.0286,-3.0262,-3.0261,-3.026,-3.0259,0,-2.9927,-2.9976,-3.0034,-3.0042,-3.0045,-3.0073,-3.0075,-3.0081,-3.0098,-3.0117,-3.0127,-3.0151,-3.0165,-3.0184,-3.0163,-3.0123,-3.0229,-3.017,-3.0224,-3.0225,-3.0249,-3.0248,-3.0415,-3.0258,-3.0258,-3.0258,-3.0257,0,-2.9815,-2.9835,-2.9921,-2.9922,-2.9936,-2.9974,-2.9996,-3.0024,-3.0033,-3.0025,-3.004,-3.0012,-3.0059,-3.0002,-3.0065,-3.0019,-3.0034,-3.0033,-3.0037,-3.0041,-2.9978,-3.0075,-3.0237,-3.0253,-3.0043,-3.0041,-3.0039,0,-2.9669,-2.9752,-2.9728,-2.9811,-2.9846,-2.9801,-2.9842,-2.9852,-2.9845,-2.9874,-2.9866,-2.9899,-2.9853,-2.986,-2.9894,-2.9887,-2.9947,-2.9879,-2.992,-2.9922,-2.992,-3.0067,-3.0097,-3.0203,-3.0016,-3.0019,-3.002,0,-2.9555,-2.9558,-2.9575,-2.9583,-2.9592,-2.9621,-2.9669,-2.9696,-2.9716,-2.9731,-2.977,-2.9816,-2.9783,-2.9797,-2.9777,-2.9813,-2.9906,-2.9773,-2.9772,-2.9797,-3.0003,-3.003,-3.0048,-2.9884,-2.9887,-2.9889,-3.0002,0,-2.9388,-2.9427,-2.9471,-2.9492,-2.9512,-2.9562,-2.9543,-2.9566,-2.9545,-2.9537,-2.9594,-2.9597,-2.9625,-2.964,-2.962,-2.9709,-2.9691,-2.9656,-2.96,-2.9697,-2.9734,-2.9749,-2.9547,-2.9545,-2.9543,-2.9542,0,0,-2.9253,-2.931,-2.9283,-2.9329,-2.9344,-2.9296,-2.9352,-2.9362,-2.9382,-2.9393,-2.9362,-2.9428,-2.9432,-2.9504,-2.9533,-2.9544,-2.9558,-2.9525,-2.9651,-2.9663,-2.9674,-2.9714,-2.973,-2.9539,-2.9539,-2.9538,-2.9538,0,-2.9189,-2.9194,-2.925,-2.9259,-2.927,-2.9259,-2.9273,-2.9276,-2.9273,-2.933,-2.929,-2.9322,-2.9376,-2.9386,-2.9398,-2.9516,-2.9484,-2.9525,-2.9595,-2.9636,-2.9651,-2.9663,-2.9705,-2.972,-2.9534,-2.9535,-2.9535,0,-2.9072,-2.9075,-2.91,-2.9133,-2.914,-2.9178,-2.9114,-2.9157,-2.9185,-2.9131,-2.9188,-2.9188,-2.9199,-2.927,-2.9301,-2.9273,-2.9418,-2.9369,-2.9378,-2.9381,-2.942,-2.9437,-2.9452,-2.9252,-2.9251,-2.925,0,0,-2.9019,-2.9056,-2.905,-2.9117,-2.9125,-2.9109,-2.9128,-2.9109,-2.912,-2.9125,-2.9124,-2.9136,-2.9167,-2.9188,-2.9216,-2.9296,-2.9297,-2.9335,-2.9348,-2.9359,-2.9369,-2.941,-2.9427,-2.9247,-2.9247,-2.9247,0,0,-2.8994,-2.899,-2.8967,-2.9043,-2.9055,-2.9054,-2.9095,-2.9067,-2.9091,-2.9083,-2.9053,-2.9055,-2.912,-2.9122,-2.9078,-2.9196,-2.9141,-2.9151,-2.9193,-2.9209,-2.9222,-2.9221,-2.9014,0,0,0,0,0,-2.8918,-2.899,-2.897,-2.8979,-2.9021,-2.9065,-2.907,-2.9048,-2.9009,-2.9042,-2.9036,-2.9001,-2.9092,-2.9053,-2.9063,-2.9112,-2.9203,-2.9211,-2.9218,-2.9291,-2.9309,-2.9324,0,0,0,0,0,0,-2.8922,-2.8934,-2.8967,-2.897,-2.8979,-2.9063,-2.8992,-2.8987,-2.9005,-2.8997,-2.9004,-2.9002,-2.8983,-2.9046,-2.9055,-2.9103,-2.901,-2.9206,-2.9213,-2.9219,-2.9297,-2.9312,-2.9324,0,0,0,0,0,-2.8924,-2.8934,-2.9007,-2.8969,-2.8977,-2.8964,-2.8989,-2.8985,-2.8998,-2.8989,-2.8986,-2.8979,-2.8985,-2.8991,-2.9051,-2.9099,-2.9004,-2.9007,-2.921,-2.9215,-2.922,-2.9304,0,0,0,0,0,0,-2.8926,-2.8931,-2.9008,-2.901,-2.894,-2.8958,-2.8961,-2.8983,-2.8988,-2.8986,-2.8963,-2.8957,-2.8987,-2.8992,-2.8997,-2.9099,-2.8998,-2.9002,-2.9004,-2.9214,-2.9218,-2.9222,0,0,0,0,0,0,-2.8925,-2.8932,-2.9009,-2.8974,-2.8971,-2.8954,-2.8956,-2.9004,-2.8989,-2.8961,-2.8956,-2.896,-2.8979,-2.8992,-2.8996,-2.9072,-2.8994,-2.8998,-2.9,-2.9002,-2.9218,-2.9221,0,0,0,0,0,0,-2.8928,-2.8934,-2.8973,-2.8971,-2.8969,-2.8984,-2.8996,-2.904,-2.8959,-2.8961,-2.8951,-2.8947,-2.8981,-2.8985,-2.8996,-2.907,-2.9071,-2.8994,-2.8997,-2.8998,-2.8999,0,0,0,0,0,0,0,-2.893,-2.8895,-2.8999,-2.8969,-2.8967,-2.9024,-2.9025,-2.9025,-2.8958,-2.8955,-2.8952,-2.8949,-2.8974,-2.8978,-2.8982,-2.9069,0,0,-2.8994,-2.8996,0,0,0,0,0,0,0,0,-2.8892,-2.8894,-2.8999,-2.9,-2.9,-2.9024,-2.9025,-2.9025,-2.8958,-2.8955,-2.8952,-2.895,-2.8975,-2.8978,-2.8981,0,0,0,0,0,0,0,0,0,0,0,0,0,0,0,-2.8999,-2.9,0,-2.9024,-2.9025,-2.9025,-2.8957,-2.8955,-2.8953,-2.8951,-2.8976,-2.8979,-2.8981,0,0,0,0,0,0,0,0,0,0,0,0,0,0,0,0,0,0,0,0,0,0,0,0,0,0,0,0,0,0,0,0,0,0,0,0,0,0,0,0,0,0,0,0,0,0,0,0,0,0,0,0,0,0,0,0,0,0,0,0,0,0,0,0,0,0,0,0,0]}]]]